DW8522 Weather Reports


Display with metric or nautical units.
time (UTC)temp
F
wind
direction
speed
MPH
gust
MPH
rain 1hr
in
rain 24hr
in
rain mn
in
humidity
%
barometer
mb
20260904103057 56 214 4.0 13.0 0.00 0.05 0.03 78 1014.0
20260904101555 56 183 4.0 12.0 0.00 0.05 0.03 78 1013.9
20260904100056 56 217 3.0 11.0 0.00 0.05 0.03 78 1013.9
20260904094552 56 326 4.0 12.0 0.00 0.05 0.03 78 1013.7
20260904093051 56 269 3.0 12.0 0.00 0.05 0.03 78 1013.5
20260904091552 57 278 3.0 10.0 0.00 0.05 0.03 79 1013.3
20260904090047 57 277 5.0 12.0 0.00 0.05 0.03 78 1013.0
20260904084544 58 230 4.0 16.0 0.00 0.05 0.03 79 1012.8
20260904083044 58 252 4.0 12.0 0.00 0.05 0.03 80 1012.2
20260904081548 58 207 5.0 13.0 0.00 0.05 0.03 81 1011.9
20260904080043 59 287 7.0 16.0 0.00 0.05 0.03 83 1011.7
20260904074539 59 259 5.0 14.0 0.00 0.05 0.03 82 1011.4
20260904073036 60 238 5.0 13.0 0.00 0.05 0.03 79 1011.1
20260904071535 60 263 8.0 24.0 0.00 0.05 0.03 80 1010.5
20260904070035 60 231 7.0 17.0 0.00 0.05 0.03 82 1010.5
20260904064534 61 250 7.0 13.0 0.00 0.05 0.03 82 1010.7
20260904063038 61 256 7.0 15.0 0.00 0.05 0.03 83 1010.6
20260904061541 62 235 5.0 18.0 0.00 0.05 0.03 84 1010.5
20260904060132 62 305 5.0 17.0 0.00 0.05 0.03 85 1010.3
20260904054536 62 252 5.0 10.0 0.00 0.05 0.03 88 1010.2
20260904053031 62 309 5.0 14.0 0.00 0.05 0.03 89 1009.9
20260904051530 62 316 4.0 15.0 0.00 0.05 0.03 89 1010.0
20260904050029 62 217 6.0 14.0 0.00 0.05 0.03 87 1009.8
20260904044540 62 103 2.0 10.0 0.00 0.05 0.03 87 1009.7
20260904043035 62 127 2.0 9.0 0.00 0.05 0.03 86 1009.6
20260904041527 62 285 4.0 9.0 0.00 0.05 0.03 85 1009.4
20260904040027 62 301 5.0 14.0 0.00 0.05 0.03 85 1009.7
20260904034525 62 277 6.0 12.0 0.00 0.05 0.03 87 1009.7
20260904033024 62 333 6.0 14.0 0.00 0.05 0.03 86 1009.9
20260904031523 62 250 6.0 18.0 0.03 0.05 0.03 87 1010.0
20260904030023 61 318 7.0 13.0 0.03 0.05 0.03 89 1010.4
20260904024519 60 284 2.0 15.0 0.03 0.05 0.03 91 1010.6
20260904023016 60 316 5.0 11.0 0.03 0.05 0.03 89 1010.8
20260904021522 61 64 4.0 13.0 0.00 0.02 0.00 85 1010.8
20260904020015 62 113 3.0 10.0 0.00 0.02 0.00 82 1010.7
20260904014512 62 245 5.0 14.0 0.00 0.02 0.00 83 1011.1
20260904013009 61 221 6.0 11.0 0.00 0.02 0.00 85 1011.8
20260904011507 61 333 4.0 13.0 0.00 0.02 0.00 85 1012.1
20260904010005 61 236 6.0 14.0 0.00 0.02 0.00 83 1012.5
20260904004504 63 304 5.0 13.0 0.00 0.02 0.00 79 1012.5
20260904003003 63 288 4.0 12.0 0.00 0.02 0.00 75 1012.7
20260904001601 63 276 3.0 14.0 0.00 0.02 0.00 74 1012.9
20260904000058 63 344 5.0 15.0 0.00 0.02 0.00 77 1013.4
20260903234558 62 328 4.0 10.0 0.00 0.02 0.00 78 1013.2
20260903233054 62 319 3.0 10.0 0.00 0.02 0.00 77 1013.6
20260903231603 62 295 4.0 12.0 0.00 0.02 0.00 75 1014.1
20260903230053 62 41 6.0 12.0 0.00 0.02 0.00 74 1014.2
20260903224551 63 127 3.0 11.0 0.00 0.02 0.00 72 1014.2
20260903223049 62 325 6.0 12.0 0.00 0.02 0.00 71 1014.3
20260903221548 63 264 4.0 9.0 0.00 0.02 0.00 72 1014.7
20260903220049 63 257 3.0 11.0 0.00 0.02 0.00 73 1014.5
20260903214546 62 245 6.0 14.0 0.00 0.02 0.00 74 1014.5
20260903213042 63 323 7.0 15.0 0.00 0.02 0.00 71 1014.8
20260903211540 63 288 6.0 21.0 0.00 0.02 0.00 72 1015.0
20260903210042 62 337 7.0 20.0 0.00 0.02 0.00 74 1015.2
20260903204533 61 266 8.0 14.0 0.00 0.02 0.00 76 1015.3
20260903203030 61 253 8.0 15.0 0.00 0.02 0.00 78 1015.4
20260903201526 59 322 5.0 14.0 0.00 0.02 0.00 82 1015.5
20260903200025 59 287 4.0 9.0 0.00 0.02 0.00 83 1015.6
20260903194524 59 224 5.0 10.0 0.00 0.02 0.00 84 1015.7
20260903193023 59 252 3.0 12.0 0.00 0.02 0.00 84 1015.7
20260903191520 59 243 5.0 13.0 0.00 0.02 0.00 84 1015.7
20260903190018 59 280 4.0 13.0 0.00 0.02 0.00 84 1015.8
20260903184515 59 276 5.0 12.0 0.00 0.02 0.00 84 1015.8
20260903183013 59 238 4.0 12.0 0.00 0.02 0.00 84 1015.9
20260903181511 59 238 4.0 11.0 0.00 0.02 0.00 84 1016.0
20260903180008 58 36 4.0 9.0 0.00 0.02 0.00 84 1015.8
20260903174508 58 278 3.0 8.0 0.00 0.02 0.00 84 1015.8
20260903173016 58 243 4.0 10.0 0.00 0.02 0.00 85 1015.8
20260903171504 58 303 4.0 10.0 0.00 0.02 0.00 86 1015.9
20260903170009 59 309 5.0 12.0 0.00 0.02 0.00 85 1016.1
20260903164606 58 27 3.0 7.0 0.00 0.02 0.00 86 1016.2
20260903163059 59 46 3.0 10.0 0.00 0.02 0.00 86 1016.1
20260903161558 59 300 4.0 8.0 0.00 0.02 0.00 86 1016.0
20260903160059 59 26 4.0 12.0 0.00 0.02 0.00 86 1015.9
20260903154558 59 315 4.0 12.0 0.00 0.02 0.00 86 1015.8
20260903153056 59 207 2.0 10.0 0.00 0.02 0.00 87 1015.9
20260903151554 59 139 2.0 7.0 0.00 0.02 0.00 87 1015.9
20260903150054 59 238 3.0 8.0 0.00 0.02 0.00 86 1016.0
20260903144551 60 252 3.0 7.0 0.00 0.02 0.00 87 1016.1
20260903143105 60 284 5.0 14.0 0.00 0.02 0.00 87 1016.2
20260903141545 60 317 5.0 10.0 0.00 0.02 0.00 88 1016.5
20260903140041 60 276 3.0 8.0 0.00 0.02 0.00 88 1016.5
20260903134540 60 259 3.0 10.0 0.00 0.02 0.00 89 1016.6
20260903133039 59 288 2.0 9.0 0.00 0.02 0.00 89 1016.6
20260903131543 59 342 4.0 10.0 0.00 0.02 0.00 90 1016.8
20260903130034 59 308 2.0 7.0 0.00 0.02 0.00 92 1016.8
20260903124534 59 337 2.0 5.0 0.00 0.02 0.00 92 1016.7
20260903123037 59 348 1.0 6.0 0.00 0.02 0.00 91 1016.7
20260903121533 59 91 1.0 4.0 0.00 0.02 0.00 91 1016.7
20260903120024 59 99 0.0 4.0 0.00 0.02 0.00 90 1016.9
20260903114525 59 20 1.0 5.0 0.01 0.02 0.02 90 1017.0
20260903113034 59 353 2.0 5.0 0.01 0.02 0.02 90 1017.2
20260903111521 58 285 3.0 8.0 0.02 0.02 0.02 91 1017.3
20260903110019 58 319 3.0 10.0 0.02 0.02 0.02 92 1017.4
20260903104518 57 328 1.0 4.0 0.01 0.01 0.01 92 1017.6